Other Public Products
Issued by NWS Charleston, SC

Home | Current Version | Previous Version | Text Only | Print | Product List | Glossary On
Versions: 1 2 3 4 5 6 7 8 9 10 11 12 13 14 15 16 17 18 19 20 21 22 23 24 25 26 27 28 29 30 31 32 33 34 35 36 37 38 39 40 41 42 43 44 45 46 47 48 49 50
000
FPUS82 KCHS 201827
OPUCHS

TEST...KCHS/KSAV Gateway Observations...TEST
National Weather Service Charleston SC
200 PM EDT FRI APR 20 2018

NOTE: "fair" indicates few or no clouds below 12,000 feet with no
significant weather and/or obstructions to visibility.

SCZ050-WAZ558-NCZ071-TXZ119-213-PAZ071-DCZ001-FLZ074-172-MI076-
NYZ176-178-MAZ016-IL014-TNZ027-NJZ106-GAZ044-MD014-201900-

...Gateway Observations for Charleston International...

CITY           SKY/WX    TMP DP  RH WIND       PRES   REMARKS
Chas Airport   FAIR      66  35  31 NE8       30.30F
6HR MIN TEMP:  49; 6HR MAX TEMP:  66;

Seattle        PTSUNNY   53  40  61 VRB3      30.24F
6HR MIN TEMP:  43; 6HR MAX TEMP:  53;

Charlotte      FAIR      61  30  31 VRB3      30.34F
6HR MIN TEMP:  45; 6HR MAX TEMP:  62;

Dallas DFW     MOSUNNY   64  35  34 SE12G20   30.24F
6HR MIN TEMP:  50; 6HR MAX TEMP:  64;

Dallas Love    MOSUNNY   64  38  38 E12       30.26F
6HR MIN TEMP:  51; 6HR MAX TEMP:  65;

Philladelphia  FAIR      50  23  34 NW15G26   30.25S
6HR MIN TEMP:  37; 6HR MAX TEMP:  50;

Wash National  FAIR      56  27  32 NW16G26   30.30F
6HR MIN TEMP:  42; 6HR MAX TEMP:  56;

Baltimore      FAIR      55  26  32 NW14G23   30.27F
6HR MIN TEMP:  39; 6HR MAX TEMP:  55;

Miami          FAIR      86  59  39 S3        30.08F
6HR MIN TEMP:  68; 6HR MAX TEMP:  87;

Detroit        FAIR      54  17  23 VRB3      30.47S
6HR MIN TEMP:  36; 6HR MAX TEMP:  55;

Newark         FAIR      51  24  34 NW14G29   30.19S
6HR MIN TEMP:  40; 6HR MAX TEMP:  52;

Laguardia      FAIR      50  24  36 NW18G25   30.18R
6HR MIN TEMP:  39; 6HR MAX TEMP:  50;

J F K          FAIR      51  24  34 NW21G30   30.18R
6HR MIN TEMP:  38; 6HR MAX TEMP:  51;

Boston Logan   PTSUNNY   51  28  41 NW17G29   30.03R
6HR MIN TEMP:  39; 6HR MAX TEMP:  51;

Ft. Lauderdale FAIR      83  71  67 E14       30.08F
6HR MIN TEMP:  69; 6HR MAX TEMP:  85;

Chicago O`Hare PTSUNNY   58  15  18 E6        30.49F
6HR MIN TEMP:  39; 6HR MAX TEMP:  58;

Chicago Midway PTSUNNY   57  25  29 E9        30.50F
6HR MIN TEMP:  36; 6HR MAX TEMP:  58;

Houston Bush   CLOUDY    61  43  51 E8        30.25F
6HR MIN TEMP:  52; 6HR MAX TEMP:  61;

Houston Hobby  CLOUDY    62  46  55 E10       30.23F
6HR MIN TEMP:  54; 6HR MAX TEMP:  62;

Nashville      FAIR      63  31  30 NE12      30.40F
6HR MIN TEMP:  39; 6HR MAX TEMP:  63;

Atlanta        FAIR      63  31  30 E9        30.34S
6HR MIN TEMP:  45; 6HR MAX TEMP:  63;


$$

GAZ044-118-TXZ119-213-NCZ071-DCZ001-MDZ014-506-PAZ021-071-NJZ106-
NYZ176-178-MAZ106-OHZ011-021-055-MIZ076-KYZ091-ILZ014-INZ047-
MNZ060-ONZ431-201900-

...Gateway Observations for Savannah International...

CITY           SKY/WX    TMP DP  RH WIND       PRES   REMARKS
Savannah Arpt  FAIR      66  39  37 E8G18     30.31F
6HR MIN TEMP:  51; 6HR MAX TEMP:  66;

Atlanta        FAIR      63  31  30 E9        30.34S
6HR MIN TEMP:  45; 6HR MAX TEMP:  63;

Charlotte      FAIR      61  30  31 VRB3      30.34F
6HR MIN TEMP:  45; 6HR MAX TEMP:  62;

Dallas DFW     MOSUNNY   64  35  34 SE12G20   30.24F
6HR MIN TEMP:  50; 6HR MAX TEMP:  64;

Houston Bush   CLOUDY    61  43  51 E8        30.25F
6HR MIN TEMP:  52; 6HR MAX TEMP:  61;

Wash National  FAIR      56  27  32 NW16G26   30.30F
6HR MIN TEMP:  42; 6HR MAX TEMP:  56;

Wash Dulles    FAIR      56  23  27 N15G22    30.29F
6HR MIN TEMP:  38; 6HR MAX TEMP:  56;

Baltimore      FAIR      55  26  32 NW14G23   30.27F
6HR MIN TEMP:  39; 6HR MAX TEMP:  55;

Philadelphia   FAIR      50  23  34 NW15G26   30.25S
6HR MIN TEMP:  37; 6HR MAX TEMP:  50;

Newark         FAIR      51  24  34 NW14G29   30.19S
6HR MIN TEMP:  40; 6HR MAX TEMP:  52;

Laguardia      FAIR      50  24  36 NW18G25   30.18R
6HR MIN TEMP:  39; 6HR MAX TEMP:  50;

J F K          FAIR      51  24  34 NW21G30   30.18R
6HR MIN TEMP:  38; 6HR MAX TEMP:  51;

Boston         PTSUNNY   51  28  41 NW17G29   30.03R
6HR MIN TEMP:  39; 6HR MAX TEMP:  51;

Pittsburg      FAIR      50  24  36 N13G21    30.39S
6HR MIN TEMP:  32; 6HR MAX TEMP:  50;

Akron          FAIR      50  22  33 NW16      30.43S
6HR MIN TEMP:  33; 6HR MAX TEMP:  51;

Cleveland      SUNNY     48  19  31 N12G18    30.49F
6HR MIN TEMP:  36; 6HR MAX TEMP:  49;

Cincinnati     FAIR      55  23  28 N6        30.45F
6HR MIN TEMP:  36; 6HR MAX TEMP:  56;

Columbus       FAIR      53  23  31 E3        30.45S
Detroit        FAIR      54  17  23 VRB3      30.47S
6HR MIN TEMP:  36; 6HR MAX TEMP:  55;

Chicago O`Hare PTSUNNY   58  15  18 E6        30.49F
6HR MIN TEMP:  39; 6HR MAX TEMP:  58;

Minneapolis    PTSUNNY   48  18  30 S3        30.49F
6HR MIN TEMP:  28; 6HR MAX TEMP:  50;

Indianapolis   FAIR      56  16  20 NE12      30.47F
6HR MIN TEMP:  35; 6HR MAX TEMP:  57;

Toronto Canada MOSUNNY   43  25  49 N16       30.38F

$$




USA.gov is the U.S. government's official web portal to all federal, state and local government web resources and services.